Wind_Speed
30 30 29 29 29 29 29 28 28 28 29 29 29 29 29 30 30 30 31 31 31 30 30 31 30 31 31 31 31 31 30 30 30 30 30 30 29 29 28 28 28 27 27
32 31 31 31 30 30 30 30 30 30 30 31 31 31 31 32 32 33 33 33 33 32 32 32 32 32 32 32 33 33 33 32 32 32 32 32 32 32 31 30 30 30 29
33 33 33 33 33 32 32 32 32 33 32 33 33 33 33 33 34 34 35 35 35 35 35 35 34 34 34 34 34 34 35 35 35 35 35 34 34 34 34 34 33 32 32
34 35 34 34 34 34 34 34 34 35 35 35 35 35 35 35 35 36 36 37 38 38 38 38 37 37 37 37 36 36 37 37 37 37 37 37 36 37 37 36 35 35 34
35 36 35 35 36 36 36 36 37 37 37 37 37 37 37 37 38 38 39 39 40 41 41 41 40 40 40 40 39 40 39 39 39 39 39 39 39 39 39 39 38 38 37
36 37 37 36 37 38 38 38 38 39 39 39 39 39 39 40 40 41 41 41 42 42 43 43 43 43 42 42 42 42 41 41 41 41 41 41 41 41 41 41 40 40 40
36 37 39 38 38 39 39 39 40 40 40 41 41 42 42 42 43 43 44 44 44 44 44 44 45 45 45 45 45 45 44 43 43 43 43 44 44 44 44 43 43 43 43
37 38 40 40 40 40 41 41 41 42 41 41 43 44 44 45 45 45 46 47 47 47 47 47 47 47 47 47 47 47 47 46 46 45 45 45 45 45 46 46 46 46 45
38 39 40 41 42 42 42 43 43 43 42 44 44 44 45 46 46 47 48 48 48 49 49 49 49 49 49 49 49 49 49 49 48 48 48 48 48 48 48 48 48 48 48
40 40 41 42 43 43 43 44 44 44 46 46 46 46 47 48 48 48 49 49 49 50 50 51 52 52 52 52 52 52 52 52 51 51 51 51 51 51 51 51 52 52 52
42 42 42 43 44 45 44 44 45 46 47 47 47 47 48 48 49 49 48 49 51 51 51 52 53 53 54 54 55 55 55 55 55 55 55 55 54 54 53 54 54 54 53
43 43 43 43 44 45 45 46 46 47 47 47 47 47 48 49 49 50 50 50 51 51 52 53 54 55 56 56 57 57 58 58 58 58 58 58 58 57 56 56 56 56 55
44 44 44 44 44 45 46 47 47 47 48 48 48 49 49 50 50 51 52 52 52 53 53 54 56 57 58 59 59 59 60 60 60 60 60 60 59 59 59 58 58 58 58
45 45 45 45 45 45 46 47 47 48 48 48 48 49 50 51 52 53 53 54 55 55 55 56 57 59 59 60 60 60 61 61 61 62 61 61 61 61 60 60 60 60 60
46 45 45 45 46 46 46 47 48 48 48 49 50 50 51 52 53 54 55 56 57 57 57 57 57 58 60 61 61 62 62 62 62 62 62 62 62 62 63 62 63 63 63
46 45 46 46 46 46 46 46 47 49 49 50 51 52 53 54 54 55 56 57 58 58 58 58 59 59 59 60 60 61 62 63 63 63 64 64 65 64 64 65 65 65 65
45 45 45 45 45 46 46 47 48 49 50 52 53 54 54 55 55 55 56 56 57 57 57 58 59 59 59 59 59 60 61 63 63 64 65 66 66 66 66 66 67 66 66
44 44 44 44 45 46 47 47 48 49 50 52 53 53 54 54 55 55 56 56 56 57 57 57 57 58 59 59 59 59 60 61 62 63 64 65 65 65 65 66 66 67 68
44 44 44 45 46 47 47 48 49 50 51 52 53 53 53 53 54 55 55 55 55 56 56 56 56 57 58 59 60 60 59 60 61 61 63 63 63 63 64 64 65 66 67
45 45 45 45 47 47 48 49 49 51 51 51 52 52 52 52 53 53 54 54 53 54 54 54 55 55 56 58 59 60 60 60 60 60 61 62 62 62 63 63 64 64 65
44 45 45 46 47 48 49 49 50 50 50 50 50 50 51 51 52 52 52 52 53 53 53 54 54 54 55 56 57 59 60 60 60 60 61 62 62 63 63 63 63 63 63
44 45 46 46 47 48 49 49 50 49 49 48 48 49 50 51 52 52 52 52 53 53 53 53 54 54 54 55 56 57 58 60 60 61 61 61 62 62 62 62 63 63 62
44 45 46 47 48 49 49 49 49 49 48 48 48 49 49 50 51 52 52 53 54 54 53 53 53 53 54 54 55 56 57 59 59 60 61 60 60 60 60 60 60 61 62
44 45 46 48 48 48 48 48 48 48 48 48 49 49 49 50 50 51 52 52 53 53 53 53 53 54 54 53 54 55 55 56 56 57 59 59 59 59 59 59 59 59 60
45 46 46 46 46 47 47 47 47 47 48 49 49 49 48 49 49 50 51 51 51 52 52 53 53 53 53 54 54 54 54 54 54 55 57 57 57 57 57 57 56 57 57
45 45 45 45 46 46 46 46 46 47 48 48 48 48 48 48 49 50 50 50 50 50 51 52 52 51 51 52 54 54 54 54 53 53 54 55 55 54 54 54 54 55 56
Wind_Direction
258 259 260 261 263 263 263 261 260 260 259 258 257 256 257 257 257 256 257 257 256 256 256 255 255 255 255 255 255 254 253 253 253 253 254 254 253 253 254 254 255 256 257
257 258 259 260 261 262 263 262 262 261 260 259 258 257 257 257 257 257 257 257 257 257 257 258 257 256 256 257 256 255 254 254 254 254 254 255 255 254 254 255 255 255 257
258 257 258 260 261 262 262 263 262 262 262 260 259 257 257 258 258 257 257 257 258 258 258 258 258 257 257 258 257 257 256 255 255 255 255 255 256 255 255 257 256 257 257
259 258 258 259 260 262 262 262 263 263 262 261 260 259 259 259 259 258 258 258 259 258 258 258 258 258 258 258 258 258 257 257 256 255 255 255 255 255 257 257 257 258 258
259 258 260 260 260 262 263 263 263 264 263 262 262 261 261 261 261 260 260 259 259 259 259 258 258 258 258 259 259 259 258 258 258 257 256 256 256 256 256 256 257 258 258
260 259 260 261 261 262 264 264 265 264 263 262 262 262 262 262 262 261 260 260 260 259 259 259 259 258 258 258 258 259 258 258 259 259 258 257 257 256 256 255 257 257 258
263 261 260 261 261 263 265 266 266 265 262 261 261 263 263 263 263 263 262 261 261 261 259 260 260 259 258 258 258 259 259 259 259 259 259 258 258 257 256 256 257 257 257
264 263 263 264 263 263 265 266 266 264 262 261 263 263 263 264 264 264 263 262 263 263 262 261 259 259 259 259 259 259 259 259 259 259 259 259 258 258 257 257 257 257 258
266 265 265 265 264 265 265 265 265 263 263 265 264 264 264 264 263 264 264 264 264 264 264 262 261 260 260 260 260 260 260 260 259 259 259 259 259 258 258 257 258 258 258
267 267 267 266 266 266 265 265 264 264 266 266 264 263 264 265 264 263 264 265 265 264 264 263 262 261 261 261 260 261 260 260 260 260 260 260 260 259 259 258 258 259 259
268 268 268 268 267 267 266 266 266 267 267 266 266 265 265 266 265 265 265 266 266 265 265 264 262 261 261 261 261 261 261 261 261 261 261 261 261 260 260 259 259 259 258
269 269 269 269 268 268 268 268 267 266 266 266 266 266 266 266 266 266 266 267 267 267 267 265 263 261 261 261 261 261 261 261 262 261 262 261 261 261 261 260 259 259 258
270 269 269 269 269 269 268 268 268 267 267 267 266 266 266 266 267 268 268 268 267 267 267 266 264 263 262 262 262 262 262 262 262 262 262 261 261 260 260 260 260 259 258
271 270 270 269 270 270 269 268 268 268 268 267 267 267 267 267 268 269 268 268 268 267 266 266 265 264 264 264 263 263 263 262 262 262 261 261 261 261 261 261 261 260 259
272 271 270 269 269 269 269 268 268 268 268 268 268 269 269 269 269 270 270 269 269 268 267 266 266 265 264 264 265 264 264 262 262 262 262 262 262 262 261 261 261 261 260
273 271 270 270 270 269 270 270 270 269 270 270 270 270 270 270 270 270 271 270 270 269 269 268 267 266 266 266 266 266 265 263 263 262 262 262 262 262 262 261 261 260 260
272 271 271 271 271 271 271 271 271 271 271 271 271 271 271 271 271 271 271 271 271 270 270 270 268 267 267 266 265 266 266 264 263 263 262 263 263 263 263 262 262 261 261
273 273 273 273 273 273 273 273 273 273 273 273 272 272 272 272 272 272 272 272 272 272 271 270 269 268 268 268 267 267 266 265 264 264 264 264 264 263 263 263 262 262 261
275 275 275 275 274 274 275 275 275 275 275 274 273 273 272 273 273 273 272 273 271 271 271 270 269 269 269 269 268 268 267 266 265 266 266 265 265 264 264 263 263 263 262
276 275 275 276 276 276 276 277 277 277 276 275 274 274 273 273 273 273 273 273 272 272 271 270 270 270 270 269 269 268 268 267 266 266 267 266 266 265 265 264 264 263 263
276 276 277 277 278 278 278 278 278 278 277 276 275 274 274 273 274 274 275 274 272 272 271 270 270 270 269 269 269 269 269 267 267 267 267 267 266 265 265 265 264 264 263
277 277 278 279 279 279 279 279 278 277 277 276 276 276 275 275 275 274 275 274 273 273 271 270 270 270 270 271 270 270 270 269 268 268 267 267 267 266 266 265 264 263 263
279 280 280 280 280 280 280 279 278 277 276 276 277 277 277 276 276 275 275 274 273 272 272 271 271 271 271 271 271 271 271 270 270 269 268 267 267 267 266 265 264 264 263
280 280 281 281 281 281 280 279 277 276 276 277 278 278 278 278 278 277 276 275 273 273 272 272 272 272 272 272 272 272 272 271 270 269 269 268 267 266 266 265 264 263 263
280 280 281 281 281 280 279 278 277 276 277 278 278 279 279 279 279 278 277 276 274 273 273 273 272 273 273 272 272 272 271 272 271 270 270 270 269 267 265 264 263 263 262
281 281 282 282 281 280 279 278 277 277 277 278 278 278 279 280 281 280 279 277 275 274 273 273 272 272 273 272 272 272 272 272 271 271 270 270 269 268 266 264 263 262 262
Height
5767 5768 5768 5769 5769 5770 5770 5771 5771 5772 5773 5774 5775 5776 5777 5777 5778 5779 5780 5781 5782 5783 5783 5784 5785 5786 5787 5788 5789 5790 5791 5792 5793 5794 5795 5795 5796 5797 5798 5798 5799 5800 5801
5759 5760 5761 5762 5762 5762 5763 5763 5764 5764 5765 5766 5767 5768 5769 5770 5771 5772 5773 5774 5775 5776 5776 5777 5778 5779 5780 5781 5782 5783 5784 5785 5786 5787 5788 5788 5789 5790 5791 5792 5793 5794 5795
5751 5752 5753 5754 5754 5755 5755 5755 5756 5756 5757 5758 5759 5760 5762 5763 5763 5764 5765 5766 5767 5768 5769 5769 5770 5771 5772 5773 5774 5775 5776 5777 5778 5779 5780 5781 5782 5782 5783 5784 5786 5786 5787
5742 5743 5744 5745 5746 5746 5746 5747 5747 5748 5749 5750 5751 5752 5753 5754 5755 5756 5757 5758 5758 5759 5760 5761 5762 5763 5763 5764 5765 5766 5767 5768 5770 5770 5771 5773 5774 5775 5775 5776 5777 5778 5780
5733 5734 5735 5736 5736 5737 5737 5738 5738 5739 5740 5741 5742 5743 5744 5745 5746 5747 5748 5748 5749 5750 5751 5752 5753 5754 5754 5755 5756 5757 5758 5759 5760 5761 5762 5763 5765 5766 5767 5768 5769 5770 5771
5724 5724 5725 5726 5727 5728 5728 5728 5729 5729 5730 5731 5732 5733 5734 5735 5736 5736 5737 5738 5739 5740 5741 5742 5743 5744 5745 5746 5747 5747 5748 5749 5750 5751 5752 5753 5755 5756 5757 5758 5759 5761 5762
5714 5715 5715 5716 5717 5718 5718 5718 5719 5719 5719 5720 5722 5723 5723 5724 5725 5725 5726 5727 5728 5728 5729 5730 5731 5733 5734 5735 5736 5737 5738 5739 5740 5741 5742 5743 5744 5745 5746 5747 5749 5750 5752
5705 5705 5706 5706 5707 5708 5708 5708 5708 5708 5709 5710 5711 5712 5713 5714 5713 5713 5714 5715 5716 5717 5717 5718 5719 5720 5721 5723 5724 5725 5726 5727 5728 5729 5730 5731 5733 5734 5735 5736 5738 5739 5740
5695 5695 5696 5696 5696 5697 5697 5697 5697 5698 5699 5699 5699 5700 5700 5702 5702 5703 5702 5702 5703 5704 5704 5705 5706 5707 5708 5709 5711 5712 5713 5714 5715 5717 5718 5719 5720 5721 5723 5724 5725 5727 5728
5685 5685 5685 5685 5685 5685 5686 5686 5686 5686 5687 5687 5687 5687 5688 5688 5689 5690 5690 5690 5690 5690 5691 5691 5692 5694 5695 5696 5697 5698 5700 5701 5702 5703 5704 5706 5707 5708 5709 5710 5712 5713 5714
5675 5674 5674 5674 5674 5674 5674 5674 5674 5674 5674 5674 5674 5675 5675 5675 5675 5676 5677 5677 5677 5676 5676 5677 5677 5679 5680 5681 5682 5684 5685 5686 5687 5689 5690 5691 5692 5693 5693 5695 5697 5698 5700
5664 5663 5663 5662 5662 5662 5662 5662 5662 5662 5662 5662 5662 5662 5662 5662 5662 5662 5663 5663 5663 5663 5662 5662 5662 5663 5664 5665 5667 5668 5669 5670 5671 5673 5674 5675 5676 5677 5678 5679 5681 5683 5685
5652 5652 5651 5650 5650 5649 5649 5649 5649 5649 5649 5649 5649 5649 5649 5649 5649 5648 5649 5648 5648 5648 5648 5647 5647 5647 5648 5649 5650 5651 5653 5654 5655 5656 5657 5658 5660 5661 5662 5663 5665 5667 5668
5640 5640 5639 5638 5637 5637 5637 5637 5636 5636 5636 5636 5636 5635 5635 5635 5634 5634 5633 5633 5633 5633 5633 5632 5631 5631 5631 5632 5633 5634 5635 5636 5638 5639 5640 5641 5642 5644 5645 5646 5648 5649 5651
5628 5627 5627 5626 5625 5625 5624 5624 5624 5624 5623 5623 5622 5622 5621 5620 5619 5619 5618 5617 5617 5617 5617 5616 5615 5615 5614 5615 5615 5616 5617 5618 5619 5621 5622 5623 5625 5626 5628 5629 5630 5632 5634
5616 5615 5614 5614 5613 5612 5611 5611 5611 5610 5610 5609 5608 5607 5606 5605 5604 5603 5602 5601 5600 5599 5600 5600 5599 5598 5598 5598 5598 5598 5599 5600 5601 5603 5604 5605 5606 5608 5609 5611 5612 5613 5615
5604 5602 5602 5601 5600 5599 5598 5598 5597 5596 5595 5594 5593 5592 5590 5589 5588 5587 5585 5584 5583 5582 5583 5583 5582 5581 5580 5580 5581 5581 5581 5582 5583 5584 5585 5586 5587 5588 5589 5591 5593 5594 5596
5591 5590 5589 5588 5587 5586 5585 5584 5583 5582 5581 5579 5578 5576 5575 5573 5572 5571 5569 5568 5566 5566 5565 5566 5565 5564 5563 5563 5563 5564 5564 5564 5565 5565 5566 5566 5567 5569 5570 5571 5572 5574 5575
5579 5578 5577 5576 5574 5573 5572 5571 5569 5568 5566 5564 5562 5561 5559 5558 5556 5554 5553 5552 5550 5549 5548 5549 5548 5547 5547 5546 5546 5546 5546 5546 5547 5547 5547 5548 5548 5549 5550 5551 5552 5553 5555
5567 5566 5564 5563 5561 5560 5558 5557 5555 5553 5551 5549 5547 5546 5544 5542 5541 5539 5538 5536 5535 5534 5533 5532 5532 5531 5530 5529 5528 5529 5529 5529 5529 5529 5529 5529 5530 5530 5531 5532 5534 5534 5535
5555 5553 5552 5550 5548 5547 5545 5543 5541 5539 5537 5535 5533 5531 5529 5528 5526 5524 5523 5521 5519 5518 5517 5517 5516 5516 5515 5513 5512 5512 5512 5512 5511 5510 5510 5511 5511 5512 5512 5513 5513 5514 5515
5543 5541 5539 5537 5535 5533 5531 5529 5527 5525 5523 5521 5519 5517 5515 5513 5512 5510 5508 5506 5504 5503 5502 5501 5501 5500 5499 5497 5496 5495 5494 5495 5496 5495 5492 5493 5492 5493 5493 5494 5494 5495 5496
5531 5528 5526 5524 5522 5519 5517 5515 5512 5511 5509 5507 5505 5503 5501 5499 5497 5495 5493 5491 5489 5487 5486 5486 5485 5484 5483 5482 5481 5480 5477 5476 5477 5475 5473 5474 5474 5474 5474 5475 5475 5476 5476
5518 5515 5513 5510 5508 5505 5503 5501 5499 5497 5495 5493 5491 5489 5487 5484 5482 5480 5478 5476 5474 5473 5471 5470 5470 5468 5466 5464 5463 5462 5460 5460 5459 5457 5455 5456 5456 5456 5456 5456 5457 5457 5458
5505 5502 5500 5497 5494 5492 5489 5487 5485 5484 5482 5480 5477 5475 5473 5470 5468 5465 5464 5462 5460 5458 5456 5454 5453 5451 5450 5448 5446 5445 5444 5443 5443 5442 5439 5438 5439 5438 5439 5439 5439 5439 5440
5491 5489 5486 5484 5481 5479 5476 5474 5472 5470 5469 5466 5464 5461 5459 5456 5453 5450 5448 5447 5445 5443 5441 5439 5438 5436 5434 5433 5430 5429 5428 5427 5426 5426 5424 5422 5421 5420 5422 5423 5422 5423 5423